Timeline UpdatesTrip UpdatesNews PostsPvt Posts♥♥Travel TipsAdmin PostsConv PostsFollowed PostsChat RequestsBlog PostsPNR Posts

Disclaimer
Search
 
 
Thu Oct 23, 2014 12:12:21 ISTHomeTrainsΣChainsAtlasPNRForumGalleryNewsFAQTripsMembersLoginFeedback
No Recent News for this Train
Other Trains in the News **new
Latest...
Departure from Mangalore Central on 26th August, to be delayed by more than 4 hours due to late arrival of 12619
Tue Aug 26, 2014 (12:06PM)
⇐ Return Journey: Train# 16347

16348/Mangalore - Trivandrum Express

OLD Time-Table. Will be Updated soon.
Aug 31 2014 (2:49PM)
Change Departure Station:
Change Arrival Station:
Post a Train Travel TipPost a Train Travel Tip **new
Post a Comment/Question/Picture/VideoPost a Comment/Question/Picture/Video
Pantry/Catering
✕ NO Pantry Car
✓ Catering Avbl
RSA - Rake Sharing
Author: Srivatsa Udupa; Entry# 339734 RSA; Permanent RSA with 12619/12620 MatsyaGandha Express
Rake/Coach Composition
SLR-UR-UR-S1-S2-S3-S4-S5-S6- S7-S8-S9-S10-S11-B1-B2-B3-A1-UR-UR-UR-SLR- Loco; .; De-reseved: Cannanore-Calicut S6
Loco
MAQ to SRR GOC WDP-4D SRR to TVC ED/RPM WAP4
News    PNR    Forum    Time-Table    Availability    Fare Chart    Map    Arr/Dep History    Trips    Gallery    ΣChains    X/O    Timeline    
Travel Time: 3h 3m    11 halts    Distance: 126 km    Avg Speed: 41 km/hr
Type: Mail/Express
Zone: SR/Southern
Departs @ 01:42 (Avg 50m late)
Platform# 1
SMTWTFS
Chengannur/CNGR 
Arrives @ 04:45 (Avg 19m late)
Platform# 2
SMTWTFS
Trivandrum Central/TVC 

11 halts. 25 intermediate Stations between Chengannur and Trivandrum Central

Show ALL intermediate Stations  Show Old Time-Table

#TrkCodeStation NameX/OArrivesAvgDepartsAvgHaltPFDay#KmSpeedElevZoneAddress
1%==%MAQMangalore Central (4)  -14:20+2331-506.36314mSRMangalore 575001, Karnataka
2%==%KMQKumbala (2)  14:54 14:52+2214:55 14:53+221m11-472.88123mSRKumbla, Kerala
3%==%KGQKasaragod (3)  15:05 15:02+2215:07 15:04+232m11-460.55218mSRTel: 04994 220800, Kerala
4%==%KQKKottikkulam (2)  15:16 15:15+2315:17 15:16+231m--1-451.18225mSRBekal, Kerala
5%==%KZEKanhangad (3)X  15:28 15:26+2515:30 15:28+252m--1-437.45115mSRKanhangad, Kerala
6%==%NLENileshwar (2)  15:39+2615:40+271m--1-428.24512mSRNileswaram, Kerala
7%==%CHVCharvattur (3)X  15:47+2815:48+301m--1-422.912814mSRKasaragod district, Kerala
8%==%TKQTrikkarippur  15:52+015:53+01m--1-414.35313mSRKasargod district, Kerala
9%==%PAYPayyanur (3)  16:00+3316:02+342m--1-408.1780mSRKannur District, Kerala
10%==%PAZPayangadi (2)X  16:11+3716:12+381m21-396.56412mSRKannur District, Kerala
11%==%KPQKannapuram (2)  16:19+4016:20+411m21-389.0229mSRKannur District, Kerala
12%==%CANKannur Main (4)  17:00+2717:05+315m31-374.56514mSRKannur Tel: 0497 2705555, Kerala
13%==%TLYThalassery (2)  17:23 17:24+3317:25 17:26+332m--1-353.8629mSRKannur, Kerala
14%==%MAHEMahe (2)X  17:33 17:35+3517:35 17:37+352m--1-344.67716mSRMahe, Puducherry
15%==%BDJVadakara (2)  17:43 17:47+3417:45 17:49+342m11-331.77711mSRCalicut / Station Ph No : 0496-2524254, Kerala
16%==%QLDKoyilandy (3)  18:04 18:06+3818:05 18:07+391m--1-309.83811mSRQuilandi, Kerala
17%==%CLTKozhikode Main (4)X  18:45+2618:50+305m--1-285.44311mSRCalicut Tel: 0495 2701234, Kerala
18%==%FKFerok (2)  19:04+3319:05+331m--1-275.54719mSRFeroke, Kerala
19%==%VLIVallikunnu (2)  19:18-19:19-1m--1-265.34313mSRVallikkunnu, Kerala
20%==%PGIParappangadi (2)  19:26+3619:27+371m--1-260.35419mSRParappanangadi, Kerala
21%==%TATanur (3)X  19:36+3219:37+321m--1-252.25311mSRMalappuram, Kerala
22%==%TIRTirur (3)X  19:46+3519:48+362m--1-244.2539mSRTel: 0494 2422240, Kerala
23%==%KTUKuttippuram (2)  20:05+3620:07+362m--1-229.16517mSRKuttippuram, Kerala
24%==%PTBPattambi (2)X  20:24+3820:25+391m--1-210.72021mSRPattambi, Kerala
25%==%SRRShoranur Junction (7)  21:00+3521:10+3310m51-199.15226mSRShoranur ph.no 0466-2222913, Kerala
26/==/WKIWadakkanchery (2)  21:34 21:29+4621:35 21:30+471m11-182.65240mSRWadackanchery, Kerala
27/==/TCRThrissur (4)X  21:58 21:49+4622:01 21:50+483 1m11-166.2756mSRThrissur Tel: 0487 2423150, Kerala
28/==/IJKIrinjalakkuda (2)X  22:27 22:09+4522:28 22:10+461m--1-142.45518mSRKalletumkara, Kerala
29/==/CKIChalakkudy (3)  22:37 22:17+4822:38 22:18+491m11-136.0709mSRPh: 0480- 2701368, Kerala
30/==/AFKAngamaly for Kalady (3)  22:51 22:31+5322:52 22:32+541m--1-120.83516mSRPhone: 0484-2452340, Kerala
31/==/AWYAluva (3)X  23:01 22:48+4923:03 22:50+502m11-111.62212mSRPh: 0484-2624141, Kerala
32/==/ERNErnakulam Town (North) (2)X  23:35+3723:40+385m21-94.7569mSRTel: 0484 2395198, Kerala
33%==%PVRDPiravom Road  00:14 00:11+3900:15 00:12+411m--2-66.04812mSRKottayam, Kerala
34%==%KTYMKottayam (3)  00:55 00:51+3801:00 00:55+395 4m--2-34.85615mSRTel: 0481 2563535, Kerala
35%==%CGYChanganassery (3)  01:18 01:14+4901:20 01:15+502 1m--2-16.95211mSRPh: 0481- 2420108, Kerala
36%==%TRVLTiruvalla (2)  01:28 01:24+5101:30 01:25+522 1m--2-9.13427mSRPh: 0469-2601314, Kerala
37%==/CNGRChengannur (3)»  01:38 01:41+4901:40 01:42+502 1m120.0636mSRPh: 0479-2452340, Kerala
38/==/MVLKMavelikara (3)X  01:53 01:54+5001:55+512 1m3212.52613mSRMavelikkara Ph: 0479-2302249, Kerala
39/==/KYJKayamkulam Junction (5)X  02:13+4102:15+422m--220.25911mSRAlappuzha Ph;0479-2442042, Kerala
40/==/KPYKarunagappalli (2)  02:28 02:29+4202:30+432 1m--233.95712mSRKollam Dist, Kerala
41/==/STKTSasthamkotta (2)02:38+4502:39+461m--241.6560mSRKollam Dist, Kerala
42/==/QLNKollam Junction (6)  03:05 03:00+4103:10 03:05+415m1261.05916mSRKollam 0474-2746194, Kerala
43/==/MYYMayyanad (2)  03:19 03:14+4503:20 03:15+451m--269.95321mSRMayyanad, Kerala
44/==/PVUParavur (3)  03:24 03:19+4603:25 03:20+461m--273.47518mSRParavoor, Kerala
45/==/VAKVarkala Sivagiri (3)  03:35 03:29+4803:37 03:30+482 1m--284.76152mSREdava Kappil Road, Kerala
46/==/KVUKadakavur (3)  03:46 03:39+4803:47 03:40+491m--293.83720mSRKadakkavoor, Kerala
47/==/CRYChirayinkeezhu (2)  03:51 03:45+2203:52 03:46+221m--296.96919mSRChirayinkeezhu, Kerala
48/==/TVPThiruvananthapuram Pettah (2)  04:19 04:09+1:3504:20 04:10+1:351m--2123.3418mSRTrivandrum Ph: 04712470181, Kerala
49/==/TVCTrivandrum Central (5)•  04:45+19-22125.6-12mSRThiruvananthapuram 695001, Kerala
Scroll to Top
Scroll to Bottom